Fort Myers, FL

1:57 PM EDT on October 16, 2019 (GMT -0400)
Page

Weather History for KFMY - September, 2019

Change the Weather History Date:

Sunday, September 15, 2019

  Actual Average Record
Temperature  
Mean Temperature 84 °F 83 °F  
Max Temperature 91 °F 91 °F 96 °F (1995)
Min Temperature 77 °F 75 °F 67 °F (1918)
Degree Days  
Heating Degree Days 0 0  
Month to date heating degree days 0 0  
Since 1 July heating degree days 0 0  
Cooling Degree Days 19 18  
Month to date cooling degree days 299 270  
Year to date cooling degree days 3220 2994  
Growing Degree Days 33 (Base 50)    
Moisture  
Dew Point 74 °F    
Average Humidity 77    
Maximum Humidity 94    
Minimum Humidity 59    
Precipitation  
Precipitation 0.00 in 0.29 in 2.98 in (1970)
Month to date precipitation 2.48 4.71  
Year to date precipitation 48.70 45.78  
Sea Level Pressure  
Sea Level Pressure 29.93 in    
Wind  
Wind Speed 6 mph (NW)    
Max Wind Speed 17 mph    
Max Gust Speed 22 mph    
Visibility 10 miles    
Events      
T = Trace of Precipitation, MM = Missing Value Source: NWS Daily Summary

Daily Weather History Graph

Daily Weather History Graph

Search for Another Location

Airport or City:

Astronomy

Sep. 15, 2019 Rise Set
Actual Time 7:12 AM EDT 7:32 PM EDT
Civil Twilight 6:49 AM EDT 7:55 PM EDT
Nautical Twilight 6:22 AM EDT 8:22 PM EDT
Astronomical Twilight 5:55 AM EDT 8:49 PM EDT
Moon 8:44 PM EDT (9/15) 8:19 AM EDT (9/15)
Length of Visible Light 13h 05m
Length of Day
12h 19m
Full, 98% of the Moon is Illuminated
Sep 15
Full
Sep 21
Last Quarter
Sep 28
New
Oct 5
First Quarter
Oct 13
Full

Hourly Weather History & Observations

Time (EDT) Temp. Heat Index Dew Point Humidity Pressure Visibility Wind Dir Wind Speed Gust Speed Precip Events Conditions
12:53 AM 78.1 °F - 75.0 °F 90% 29.95 in 10.0 mi Calm Calm - N/A   Partly Cloudy
1:53 AM 77.0 °F - 75.0 °F 94% 29.92 in 10.0 mi East 4.6 mph - N/A   Clear
2:53 AM 77.0 °F - 75.0 °F 94% 29.94 in 10.0 mi WNW 3.5 mph - N/A   Clear
3:53 AM 77.0 °F - 75.0 °F 94% 29.93 in 10.0 mi Calm Calm - N/A   Clear
4:53 AM 77.0 °F - 75.0 °F 94% 29.92 in 10.0 mi Calm Calm - N/A   Partly Cloudy
5:53 AM 77.0 °F - 75.0 °F 94% 29.93 in 10.0 mi Calm Calm - N/A   Clear
6:53 AM 77.0 °F - 73.9 °F 90% 29.94 in 10.0 mi NNE 4.6 mph - N/A   Clear
7:53 AM 77.0 °F - 75.0 °F 94% 29.93 in 10.0 mi NE 5.8 mph - N/A   Clear
8:53 AM 80.1 °F 85.4 °F 75.9 °F 87% 29.94 in 10.0 mi NE 8.1 mph - N/A   Clear
9:53 AM 84.9 °F 94.1 °F 75.9 °F 74% 29.96 in 10.0 mi Variable 3.5 mph - N/A   Partly Cloudy
10:09 AM 84.0 °F 91.9 °F 75.0 °F 74% 29.95 in 10.0 mi North 5.8 mph - N/A   Mostly Cloudy
10:18 AM 84.9 °F 93.3 °F 75.0 °F 72% 29.96 in 10.0 mi Variable 4.6 mph - N/A   Scattered Clouds
10:53 AM 86.0 °F 93.8 °F 73.9 °F 67% 29.96 in 10.0 mi Variable 4.6 mph - N/A   Clear
11:53 AM 87.1 °F 94.5 °F 73.0 °F 63% 29.96 in 10.0 mi WSW 4.6 mph - N/A   Clear
12:53 PM 89.1 °F 97.0 °F 73.0 °F 59% 29.94 in 10.0 mi Variable 5.8 mph - N/A   Scattered Clouds
1:53 PM 89.1 °F 99.1 °F 75.0 °F 63% 29.93 in 10.0 mi West 11.5 mph - N/A   Partly Cloudy
2:53 PM 89.1 °F 99.1 °F 75.0 °F 63% 29.90 in 10.0 mi West 12.7 mph - N/A   Clear
3:53 PM 89.1 °F 97.0 °F 73.0 °F 59% 29.89 in 10.0 mi West 6.9 mph - N/A   Clear
4:53 PM 89.1 °F 98.0 °F 73.9 °F 61% 29.90 in 10.0 mi WSW 12.7 mph - N/A   Clear
5:53 PM 86.0 °F 93.8 °F 73.9 °F 67% 29.90 in 10.0 mi West 10.4 mph - N/A   Clear
6:53 PM 86.0 °F 95.1 °F 75.0 °F 70% 29.92 in 10.0 mi WNW 12.7 mph - N/A   Clear
7:53 PM 80.1 °F 83.2 °F 70.0 °F 71% 29.93 in 10.0 mi NNE 8.1 mph - N/A   Partly Cloudy
8:53 PM 79.0 °F - 70.0 °F 74% 29.93 in 10.0 mi North 4.6 mph - N/A   Clear
9:53 PM 79.0 °F - 71.1 °F 77% 29.94 in 10.0 mi Calm Calm - N/A   Clear
10:53 PM 79.0 °F - 71.1 °F 77% 29.95 in 10.0 mi Calm Calm - N/A   Clear
11:53 PM 79.0 °F - 73.0 °F 82% 29.95 in 10.0 mi NW 3.5 mph - N/A   Clear